This demonstration page uses our WeatherBlox Daily Observations layout. Learn more.

Left ArrowRight Arrow

47.50024, -111.30081

Hourly Observations for September 28, 2022

Temp ( °F °C ) Dew Point ( °F °C ) Humidity (%) Winds ( mph kmh ) Pressure ( in mb ) Visibility ( mi km ) Precip ( " mm )
12:53 am 00:53 Clear 56 13.3 37 2.8 49 49 SSW 13 20 29.99 1016 10 16 0.00 0.00
1:53 am 01:53 Clear 54 12.2 37 2.8 53 53 W 10 17 29.99 1016 10 16 0.00 0.00
2:53 am 02:53 Clear 49 9.4 37 2.8 63 63 VRB 3 6 30.00 1016 10 16 0.00 0.00
3:53 am 03:53 Clear 45 7.2 36 2.2 70 70 Calm 30.00 1016 10 16 0.00 0.00
4:53 am 04:53 Clear 48 8.9 36 2.2 63 63 W 7 11 29.99 1016 10 16 0.00 0.00
5:53 am 05:53 Clear 47 8.3 36 2.2 65 65 WSW 7 11 30.01 1016 10 16 0.00 0.00
6:53 am 06:53 Clear 50 10 35 1.7 56 56 SSE 3 6 30.01 1016 10 16 0.00 0.00
7:53 am 07:53 Sunny 58 14.4 37 2.8 46 46 S 6 9 30.00 1016 10 16 0.00 0.00
8:53 am 08:53 Sunny 63 17.2 37 2.8 38 38 SW 9 15 30.00 1016 10 16 0.00 0.00
9:53 am 09:53 Sunny 71 21.7 35 1.7 27 27 SSW 14 22 29.98 1015 10 16 0.00 0.00
10:17 am 10:17 Sunny 74 23.3 35 1.7 24 24 SSW 13 20 29.85 1011 10 16 0.00 0.00
10:53 am 10:53 Sunny 79 26.1 34 1.1 20 20 SSW 14 22 29.98 1015 10 16 0.00 0.00
11:53 am 11:53 Sunny 84 28.9 32 0 15 15 SSW 16 26 29.97 1015 10 16 0.00 0.00
12:53 pm 12:53 Sunny 87 30.6 32 0 14 14 SSW 14 22 29.93 1014 10 16 0.00 0.00
1:53 pm 13:53 Sunny 90 32.2 32 0 13 13 SSW 12 19 29.92 1013 10 16 0.00 0.00
2:53 pm 14:53 Sunny 90 32.2 28 -2.2 11 11 S 12 19 29.91 1013 10 16 0.00 0.00
3:53 pm 15:53 Sunny 91 32.8 28 -2.2 10 10 SW 9 15 29.90 1013 10 16 0.00 0.00
4:53 pm 16:53 Sunny 90 32.2 27 -2.8 10 10 WSW 13 20 29.88 1012 10 16 0.00 0.00
5:53 pm 17:53 Sunny 87 30.6 27 -2.8 11 11 SW 6 9 29.89 1012 10 16 0.00 0.00
6:53 pm 18:53 Sunny 79 26.1 30 -1.1 17 17 SSW 5 7 29.90 1012 10 16 0.00 0.00
7:53 pm 19:53 Clear 71 21.7 32 0 24 24 S 7 11 29.90 1013 10 16 0.00 0.00
8:53 pm 20:53 Clear 68 20 31 -0.6 25 25 S 9 15 29.89 1012 10 16 0.00 0.00
9:53 pm 21:53 Clear 67 19.4 31 -0.6 26 26 S 12 19 29.88 1012 10 16 0.00 0.00
10:53 pm 22:53 Clear 64 17.8 31 -0.6 29 29 ESE 5 7 29.86 1011 10 16 0.00 0.00
11:53 pm 23:53 Clear 58 14.4 32 0 37 37 SE 3 6 29.86 1011 10 16 0.00 0.00

Powered by AerisWeather